Location: Almena City Lake
(39.8850°N, 99.6804°W)
Time: 19:35:36
(UTC+00:00)

Cosmos 1782 - Pass Details

Date: 18 February 2020
Orbit: 535 x 554 km, 82.5° (Epoch: 05 April)

Event Time Altitude Azimuth Distance (km) Brightness Sun altitude
Rises 01:06:03 0° 351° (N) 2,733 6.4 -10.1°
Reaches altitude 10° 01:08:14 10° 351° (N) 1,832 5.5 -10.5°
Maximum altitude 01:12:16 83° 265° (W) 557 2.9 -11.3°
Drops below altitude 10° 01:16:15 10° 176° (S) 1,806 5.5 -12.1°
Sets 01:18:23 0° 176° (S) 2,690 6.4 -12.5°
